Location: *
(34.8620°S, 39.3380°E)
Time: 09:02:04
(UTC+00:00)

Envisat - Pass Details

Date: 27 July 2021
Orbit: 764 x 766 km, 98.2° (Epoch: 22 September)

Event Time Altitude Azimuth Distance (km) Brightness Sun altitude
Rises 01:31:00 0° 26° (NNE) 3,220 6.5 -34.8°
Reaches altitude 10° 01:33:19 10° 30° (NNE) 2,302 5.8 -34.3°
Enters shadow 01:36:02 31° 45° (NE) 1,332 4.5 -33.7°
